When you browse on this site, cookies collect data to enhance your experience and personalize the content and advertising you see.
Visit our Privacy Policy to learn more. By continuing to use the site, you agree to this use of cookies and data.
  • In Spain
  • List of Countries
  • For 7 days
  • Water Temperature
  • Weather Map
  • Weather Widgets
  • user-avatar
    Login

    Hourly Weather Andon

    Today, 1 June, Monday

    Time Temperature Precipitation Wind Pressure Humidity
    00:00 +20°C° 0 mm 1 mps 745 mmHg 77%
    01:00 +19°C° 0 mm 1 mps 745 mmHg 77%
    02:00 +19°C° 0 mm 1 mps 744 mmHg 78%
    03:00 +19°C° 0 mm 1 mps 744 mmHg 78%
    04:00 +19°C° 0 mm 1 mps 744 mmHg 80%
    05:00 +19°C° 0 mm 1 mps 744 mmHg 82%
    06:00 +19°C° 0 mm 1 mps 745 mmHg 84%
    07:00 +19°C° 0 mm 2 mps 745 mmHg 79%
    08:00 +20°C° 0 mm 3 mps 744 mmHg 74%
    09:00 +22°C° 0 mm 4 mps 744 mmHg 66%
    10:00 +23°C° 0 mm 5 mps 744 mmHg 59%
    11:00 +25°C° 0 mm 5 mps 744 mmHg 51%
    12:00 +26°C° 0 mm 5 mps 744 mmHg 43%
    13:00 +27°C° 0 mm 5 mps 744 mmHg 39%
    14:00 +27°C° 0 mm 5 mps 744 mmHg 35%
    15:00 +28°C° 0 mm 5 mps 743 mmHg 32%
    16:00 +27°C° 0 mm 5 mps 743 mmHg 34%
    17:00 +25°C° 0 mm 4 mps 744 mmHg 36%
    18:00 +23°C° 0 mm 4 mps 744 mmHg 39%
    19:00 +21°C° 0 mm 3 mps 744 mmHg 45%
    20:00 +18°C° 0 mm 2 mps 744 mmHg 52%
    21:00 +16°C° 0 mm 1 mps 744 mmHg 59%
    22:00 +15°C° 0 mm 1 mps 745 mmHg 61%
    23:00 +14°C° 0 mm 1 mps 745 mmHg 64%

    Tomorrow, 2 June, Tuesday

    Time Temperature Precipitation Wind Pressure Humidity
    00:00 +13°C° 0 mm 1 mps 745 mmHg 67%
    01:00 +13°C° 0 mm 1 mps 745 mmHg 69%
    02:00 +12°C° 0 mm 0 mps 745 mmHg 71%
    03:00 +11°C° 0 mm 0 mps 744 mmHg 73%
    04:00 +11°C° 0 mm 0 mps 744 mmHg 73%
    05:00 +12°C° 0 mm 0 mps 744 mmHg 72%
    06:00 +12°C° 0 mm 0 mps 745 mmHg 72%
    07:00 +15°C° 0 mm 0 mps 744 mmHg 62%
    08:00 +18°C° 0 mm 0 mps 744 mmHg 52%
    09:00 +24°C° 0 mm 1 mps 744 mmHg 42%
    10:00 +25°C° 0 mm 1 mps 744 mmHg 37%
    11:00 +27°C° 0 mm 2 mps 744 mmHg 31%
    12:00 +29°C° 0 mm 2 mps 745 mmHg 26%
    13:00 +28°C° 0 mm 2 mps 744 mmHg 28%
    14:00 +28°C° 0 mm 1 mps 743 mmHg 30%
    15:00 +27°C° 0 mm 1 mps 742 mmHg 32%
    16:00 +27°C° 0 mm 1 mps 742 mmHg 35%
    17:00 +26°C° 0 mm 1 mps 741 mmHg 39%
    18:00 +25°C° 0 mm 2 mps 741 mmHg 42%
    19:00 +24°C° 0 mm 2 mps 741 mmHg 46%
    20:00 +21°C° 0 mm 2 mps 741 mmHg 50%
    21:00 +20°C° 0 mm 2 mps 741 mmHg 55%
    22:00 +20°C° 0 mm 1 mps 741 mmHg 64%
    23:00 +19°C° 0 mm 1 mps 741 mmHg 74%

    Day after tomorrow, 3 June, Wednesday

    Time Temperature Precipitation Wind Pressure Humidity
    00:00 +18°C° 0 mm 1 mps 741 mmHg 83%
    01:00 +18°C° 0 mm 1 mps 741 mmHg 83%
    02:00 +18°C° 0 mm 2 mps 741 mmHg 82%
    03:00 +18°C° 0 mm 2 mps 740 mmHg 82%
    04:00 +18°C° 0 mm 2 mps 740 mmHg 85%
    05:00 +18°C° 0 mm 2 mps 740 mmHg 88%
    06:00 +18°C° 0 mm 2 mps 740 mmHg 91%
    07:00 +20°C° 0 mm 2 mps 740 mmHg 83%
    08:00 +21°C° 0 mm 3 mps 740 mmHg 76%
    09:00 +24°C° 0 mm 3 mps 740 mmHg 68%
    10:00 +26°C° 0 mm 4 mps 740 mmHg 61%
    11:00 +27°C° 0 mm 4 mps 740 mmHg 54%
    12:00 +29°C° 0 mm 4 mps 740 mmHg 47%
    13:00 +30°C° 0 mm 4 mps 739 mmHg 44%
    14:00 +32°C° 0 mm 4 mps 739 mmHg 40%
    15:00 +32°C° 0 mm 4 mps 738 mmHg 36%
    16:00 +32°C° 0 mm 4 mps 738 mmHg 40%
    17:00 +30°C° 0 mm 3 mps 738 mmHg 44%
    18:00 +29°C° 0 mm 3 mps 738 mmHg 48%
    19:00 +27°C° 0 mm 2 mps 738 mmHg 54%
    20:00 +24°C° 0 mm 2 mps 738 mmHg 60%
    21:00 +21°C° 0 mm 2 mps 738 mmHg 66%
    22:00 +21°C° 0 mm 1 mps 739 mmHg 69%
    23:00 +20°C° 0 mm 1 mps 739 mmHg 72%

    4 June, Thursday

    Time Temperature Precipitation Wind Pressure Humidity
    00:00 +19°C° 0 mm 1 mps 739 mmHg 75%
    01:00 +18°C° 0 mm 1 mps 739 mmHg 78%
    02:00 +18°C° 0 mm 1 mps 739 mmHg 81%
    03:00 +18°C° 0 mm 1 mps 739 mmHg 84%
    04:00 +18°C° 0 mm 1 mps 739 mmHg 85%
    05:00 +19°C° 0 mm 1 mps 740 mmHg 86%
    06:00 +20°C° 0 mm 1 mps 740 mmHg 87%
    07:00 +21°C° 0 mm 2 mps 740 mmHg 77%
    08:00 +24°C° 0 mm 2 mps 740 mmHg 67%
    09:00 +27°C° 0 mm 3 mps 741 mmHg 57%
    10:00 +28°C° 0 mm 3 mps 741 mmHg 48%
    11:00 +30°C° 0 mm 4 mps 741 mmHg 39%
    12:00 +32°C° 0 mm 4 mps 741 mmHg 30%
    13:00 +33°C° 0 mm 5 mps 741 mmHg 28%
    14:00 +34°C° 0 mm 5 mps 741 mmHg 27%
    15:00 +34°C° 0 mm 5 mps 740 mmHg 25%
    16:00 +33°C° 0 mm 5 mps 740 mmHg 28%
    17:00 +32°C° 0 mm 4 mps 740 mmHg 31%
    18:00 +30°C° 0 mm 3 mps 740 mmHg 34%
    19:00 +27°C° 0 mm 2 mps 741 mmHg 40%
    20:00 +24°C° 0 mm 2 mps 741 mmHg 45%
    21:00 +21°C° 0 mm 1 mps 741 mmHg 51%
    22:00 +20°C° 0 mm 1 mps 741 mmHg 54%
    23:00 +20°C° 0 mm 1 mps 741 mmHg 57%

    5 June, Friday

    Time Temperature Precipitation Wind Pressure Humidity
    00:00 +19°C° 0 mm 1 mps 742 mmHg 61%
    01:00 +18°C° 0 mm 1 mps 742 mmHg 62%
    02:00 +18°C° 0 mm 1 mps 742 mmHg 64%
    03:00 +16°C° 0 mm 1 mps 742 mmHg 66%
    04:00 +15°C° 0 mm 0 mps 742 mmHg 68%
    05:00 +15°C° 0 mm 0 mps 742 mmHg 70%
    06:00 +15°C° 0 mm 0 mps 742 mmHg 72%
    07:00 +20°C° 0 mm 1 mps 742 mmHg 68%
    08:00 +23°C° 0 mm 1 mps 743 mmHg 64%
    09:00 +26°C° 0 mm 2 mps 743 mmHg 60%
    10:00 +28°C° 0 mm 2 mps 743 mmHg 53%
    11:00 +30°C° 0 mm 2 mps 743 mmHg 47%
    12:00 +32°C° 0 mm 2 mps 743 mmHg 40%
    13:00 +34°C° 0 mm 2 mps 742 mmHg 39%
    14:00 +34°C° 0 mm 2 mps 742 mmHg 38%
    15:00 +35°C° 0 mm 3 mps 742 mmHg 36%
    16:00 +34°C° 0.1 mm 2 mps 742 mmHg 42%
    17:00 +32°C° 0.1 mm 2 mps 742 mmHg 47%
    18:00 +30°C° 0.1 mm 2 mps 742 mmHg 53%
    19:00 +27°C° 0.4 mm 2 mps 742 mmHg 63%
    20:00 +25°C° 0.4 mm 1 mps 742 mmHg 74%
    21:00 +20°C° 0.4 mm 0 mps 743 mmHg 85%
    22:00 +19°C° 0.6 mm 0 mps 743 mmHg 87%
    23:00 +21°C° 0.6 mm 1 mps 743 mmHg 90%

    6 June, Saturday

    Time Temperature Precipitation Wind Pressure Humidity
    00:00 +21°C° 0.6 mm 1 mps 743 mmHg 92%
    01:00 +21°C° 0.1 mm 1 mps 743 mmHg 93%
    02:00 +19°C° 0.1 mm 0 mps 743 mmHg 93%
    03:00 +19°C° 0.1 mm 0 mps 743 mmHg 94%
    04:00 +19°C° 0.1 mm 0 mps 743 mmHg 94%
    05:00 +19°C° 0.1 mm 0 mps 743 mmHg 95%
    06:00 +19°C° 0.1 mm 0 mps 743 mmHg 95%
    07:00 +23°C° 0 mm 1 mps 743 mmHg 86%
    08:00 +25°C° 0 mm 1 mps 744 mmHg 78%
    09:00 +27°C° 0 mm 1 mps 744 mmHg 69%
    10:00 +29°C° 0 mm 1 mps 744 mmHg 60%
    11:00 +30°C° 0 mm 1 mps 744 mmHg 51%
    12:00 +32°C° 0 mm 1 mps 744 mmHg 42%
    13:00 +33°C° 0 mm 1 mps 744 mmHg 40%
    14:00 +33°C° 0 mm 1 mps 744 mmHg 37%
    15:00 +33°C° 0 mm 1 mps 743 mmHg 35%
    16:00 +31°C° 0 mm 2 mps 743 mmHg 40%
    17:00 +29°C° 0 mm 3 mps 743 mmHg 45%
    18:00 +27°C° 0 mm 4 mps 743 mmHg 49%
    19:00 +25°C° 0 mm 3 mps 744 mmHg 56%
    20:00 +23°C° 0 mm 2 mps 744 mmHg 62%
    21:00 +19°C° 0 mm 2 mps 745 mmHg 68%
    22:00 +20°C° 0 mm 1 mps 745 mmHg 71%
    23:00 +19°C° 0 mm 1 mps 745 mmHg 74%
    Show more